#timestamp,LO_Frequency,Hit,StdDev 
1685012415.7,286046998.1,N
1685012435.6,286046999.5,N
1685012455.4,286046996.7,N
1685012475.2,286046996.6,N
1685012495.1,286046999.7,N
1685012496.0,286046999.7,N
1685012515.8,286046998.7,N
1685012535.6,286046998.4,N
1685012555.5,286047000.4,N
1685012575.3,286046999.8,N
1685012595.2,286047001.2,N
1685012615.9,286046998.4,N
1685012635.7,286046998.4,N
1685012655.6,286046999.4,N
1685012675.4,286046998.7,N
1685012695.2,286046999.9,N
1685012715.1,286047000.5,N
1685012716.0,286047000.5,N
1685012735.8,286046999.8,N
1685012755.7,286047002.6,N
1685012775.5,286047000.5,N
1685012795.3,286046999.9,N
1685012815.2,286047002.6,N
1685012835.9,286047001.9,N
1685012855.7,286047001.6,N
1685012875.6,286047002.5,N
1685012895.4,286047001.8,N
1685012915.2,286047003.8,N
1685012935.1,286047001.5,N
1685012936.0,286047001.5,N
1685012955.8,286046999.7,N
1685012975.7,286047001.6,N
1685012995.5,286047002.1,N
1685013015.3,286047001.3,N
1685013035.2,286047000.2,N
1685013055.0,286046999.8,N
1685013055.9,286046999.8,N
1685013075.8,286047002.0,N
1685013095.6,286047002.0,N
1685013115.4,286047002.8,N
1685013135.3,286047004.3,Y
1685013155.1,286047000.6,P
1685013175.8,286047001.0,P
1685013195.7,286047000.4,N
1685013215.5,286046998.3,Y
1685013235.4,286046999.4,P
1685013255.2,286046998.5,N
1685013275.0,286047001.1,N
1685013275.9,286047001.1,N
1685013295.8,286047000.7,N
1685013315.6,286047001.1,N
1685013335.4,286047000.6,N
1685013355.3,286047000.3,N
1685013375.1,286047001.2,N
1685013395.9,286046998.9,N
1685013415.7,286047000.3,N
1685013435.5,286047001.0,N
1685013455.4,286047000.8,N
1685013475.2,286047001.2,N
1685013495.0,286046997.0,Y
1685013495.9,286046997.0,P
1685013515.8,286046997.7,N
1685013535.6,286046998.5,N
1685013555.5,286046998.3,N
1685013575.3,286046996.5,Y
1685013595.1,286046997.6,P
1685013615.9,286046996.9,P
1685013635.7,286046998.1,P
1685013655.5,286046998.7,N
1685013675.4,286046996.9,Y
1685013695.2,286047000.7,P
1685013715.1,286046999.6,N
1685013716.0,286046999.6,N
1685013735.8,286046999.4,N
1685013755.6,286046998.4,N
1685013775.5,286047001.0,N
1685013795.3,286046999.0,N
1685013815.2,286046999.4,N
1685013835.9,286046998.3,N
1685013855.7,286046999.8,N
1685013875.6,286046999.9,N
1685013895.4,286047000.7,N
1685013915.2,286047000.3,N
1685013935.1,286047002.8,Y
1685013936.0,286047002.8,P
1685013955.8,286047002.8,N
1685013975.7,286047000.2,N
1685013995.5,286047000.0,N
1685014015.3,286046999.9,N
1685014035.2,286047002.7,N
1685014055.0,286047002.9,N
1685014055.9,286047002.9,N
1685014075.8,286047001.8,N
1685014095.6,286047000.1,N
1685014115.4,286047000.1,N
1685014135.3,286047000.0,N
1685014155.1,286046998.5,N
1685014175.9,286047000.8,N
1685014195.7,286047000.3,N
1685014215.5,286047000.3,N
1685014235.4,286046998.8,N
1685014255.2,286047000.1,N
1685014275.0,286046999.8,N
1685014275.9,286046999.8,N
1685014295.8,286047001.9,N
1685014315.6,286047003.3,N
1685014335.5,286047003.4,N
1685014355.3,286047003.9,N
1685014375.1,286047001.3,N
1685014395.9,286047002.9,N
1685014415.7,286047003.3,N
1685014435.6,286047005.7,Y
1685014455.4,286047004.4,P
1685014475.2,286047000.6,N
1685014495.1,286047002.6,N
1685014496.0,286047002.6,N
1685014515.8,286047002.7,N
1685014535.6,286047002.2,N
1685014555.5,286047001.1,N
1685014575.3,286046998.9,N
1685014595.2,286046999.1,N
1685014615.0,286046996.5,N
1685014615.9,286046996.5,N
1685014635.7,286046999.2,N
1685014655.6,286046998.1,N
1685014675.4,286046999.3,N
1685014695.3,286047000.7,N
1685014715.1,286046999.7,N
1685014716.0,286046999.7,N
1685014735.8,286047003.6,N
1685014755.7,286047005.7,N
1685014775.5,286047007.3,Y
1685014795.3,286047005.1,P
1685014815.2,286047005.4,N
1685014835.0,286047003.8,N
1685014835.9,286047003.8,N
1685014855.8,286047001.4,N
1685014875.6,286047004.3,N
1685014895.4,286047004.2,N
1685014915.3,286047003.9,N
1685014935.1,286047004.3,N
1685014955.8,286047001.5,N
1685014975.7,286047004.1,N
1685014995.5,286047003.4,N
1685015015.4,286047003.7,N
1685015035.2,286047003.6,N
1685015055.0,286047003.4,N
1685015055.9,286047003.4,N
1685015075.8,286047006.0,Y
1685015095.6,286047000.4,P
1685015115.5,286047000.6,N
1685015135.3,286047002.8,N
1685015155.1,286047002.6,N
1685015175.9,286047002.7,N
1685015195.7,286046999.8,N
1685015215.5,286047002.0,N
1685015235.4,286047002.6,N
1685015255.2,286047002.6,N
1685015275.1,286047000.5,N
1685015276.0,286047000.5,N
1685015295.8,286047001.8,N
1685015315.6,286047004.4,Y
1685015335.5,286047000.4,P
1685015355.3,286047000.6,N
1685015375.2,286047002.7,P
1685015395.9,286046999.9,N
1685015415.7,286047002.2,N
1685015435.6,286047002.6,N
1685015455.4,286047001.9,N
1685015475.2,286047001.8,N
1685015495.1,286047004.0,Y
1685015496.0,286047004.0,P
1685015515.8,286047002.8,N
1685015535.7,286047002.1,N
1685015555.5,286047002.8,Y
1685015575.3,286046999.3,P
1685015595.2,286046998.8,N
1685015615.0,286046999.5,N
1685015615.9,286046999.5,N
1685015635.8,286046999.6,N
1685015655.6,286046999.3,N
1685015675.4,286046995.3,Y
1685015695.3,286046997.8,P
1685015715.1,286046997.5,N
1685015735.9,286046995.5,P
1685015755.7,286046996.2,N
1685015775.5,286046994.8,Y
1685015795.4,286046997.9,P
1685015815.2,286046995.0,P
1685015835.1,286046994.9,P
1685015836.0,286046994.9,Y
1685015855.8,286047002.7,P
1685015875.6,286047004.2,N
1685015895.5,286047004.1,N
1685015915.3,286047004.2,N
1685015935.1,286047003.5,N
1685015955.9,286047005.5,N
1685015975.7,286047003.4,N
1685015995.6,286047001.4,N
